This is the latest recevied weather packets stored in our database for station/object W6SNO-1. If no packets are shown the sender has not sent any weather packets the latest 10 day(s).
| Time | Temp. | Humidity | Pressure | Rain* | Wind** | Luminosity | Snow |
|---|---|---|---|---|---|---|---|
| 1777773982 | 15° C | 76% | 1011.2 hPa | 0 mm | - | 37 W/m² | - |
| 1777773680 | 15° C | 76% | 1011.3 hPa | 0 mm | - | 37 W/m² | - |
| 1777773376 | 15.56° C | 74% | 1011.2 hPa | 0 mm | - | 55 W/m² | - |
| 1777773073 | 15.56° C | 74% | 1011 hPa | 0 mm | - | 55 W/m² | - |
| 1777772769 | 15.56° C | 75% | 1011.3 hPa | 0 mm | - | 57 W/m² | - |
| 1777772467 | 15.56° C | 75% | 1011.4 hPa | 0 mm | - | 66 W/m² | - |
| 1777772164 | 15.56° C | 74% | 1011.2 hPa | 0 mm | - | 89 W/m² | - |
| 1777771862 | 15.56° C | 74% | 1011.3 hPa | 0 mm | - | 89 W/m² | - |
| 1777771559 | 16.11° C | 73% | 1011.4 hPa | 0 mm | - | 91 W/m² | - |
| 1777771255 | 16.11° C | 73% | 1011.3 hPa | 0 mm | - | 106 W/m² | - |
| 1777770952 | 16.11° C | 73% | 1011.3 hPa | 0 mm | - | 135 W/m² | - |
| 1777770649 | 16.11° C | 73% | 1011.4 hPa | 0 mm | - | 135 W/m² | - |
| 1777770345 | 16.67° C | 72% | 1011.3 hPa | 0 mm | - | 131 W/m² | - |
| 1777770043 | 16.11° C | 72% | 1011.3 hPa | 0 mm | - | 180 W/m² | - |
| 1777769740 | 16.11° C | 72% | 1011.3 hPa | 0 mm | - | 165 W/m² | - |
| 1777769437 | 16.67° C | 71% | 1011.2 hPa | 0 mm | - | 157 W/m² | - |
| 1777769133 | 16.67° C | 70% | 1011.4 hPa | 0 mm | - | 146 W/m² | - |
| 1777768832 | 17.22° C | 68% | 1011.3 hPa | 0 mm | - | 183 W/m² | - |
| 1777768528 | 17.22° C | 68% | 1011.2 hPa | 0 mm | - | 232 W/m² | - |
| 1777768225 | 17.78° C | 67% | 1011 hPa | 0 mm | - | 201 W/m² | - |
| 1777767922 | 18.33° C | 66% | 1011.3 hPa | 0 mm | - | 206 W/m² | - |
| 1777767619 | 18.33° C | 66% | 1011.2 hPa | 0 mm | - | 225 W/m² | - |
| 1777767315 | 18.33° C | 67% | 1011.1 hPa | 0 mm | - | 294 W/m² | - |
| 1777767014 | 18.33° C | 66% | 1011.3 hPa | 0 mm | - | 293 W/m² | - |
| 1777766711 | 18.33° C | 66% | 1011.2 hPa | 0 mm | - | 370 W/m² | - |
* Rain latest hour (hover to see other rain measurements)
** Current wind speed in m/s (hover to see current wind gust speed)